Regional Weather Roundup
Issued by NWS

Home | Current Version | Previous Version | Text Only | Print | Product List | Glossary Off
Versions: 1 2 3 4 5 6 7 8 9 10 11 12 13 14 15 16 17 18 19 20 21 22 23 24 25 26 27 28 29 30 31 32 33 34 35 36 37 38 39 40 41 42 43 44 45 46 47 48 49 50

000
ASUS43 KDTX 230010
RWRMI
MICHIGAN HOURLY REGIONAL WEATHER ROUNDUP
NATIONAL WEATHER SERVICE DETROIT/PONTIAC MI
ISSUED BY NATIONAL WEATHER SERVICE GRAND RAPIDS MI
800 PM EDT THU JUN 22 2017

NOTE: "FAIR" INDICATES FEW OR NO CLOUDS BELOW 12,000 FEET WITH NO
SIGNIFICANT WEATHER AND/OR OBSTRUCTION TO VISIBILITY.

MIZ047>049-052>055-059>063-066>070-074>076-081>083-230100-
SOUTHEAST LOWER MICHIGAN

CITY           SKY/WX    TMP DP  RH WIND       PRES   REMARKS
ADRIAN         PTSUNNY   79  74  84 SW5       29.81R
6HR MIN TEMP:  75; 6HR MAX TEMP:  89; 6HR PCP:  0.11;

ALMA           PTSUNNY   80  67  63 SW7       29.74R
BAD AXE        MOSUNNY   79  68  69 SW5       29.74F
6HR MIN TEMP:  77; 6HR MAX TEMP:  83;

DETROIT CITY   HVY RAIN  69  67  93 SW18G41   29.84R VSB 1/4
6HR MIN TEMP:  79; 6HR MAX TEMP:  87;

DETROIT        TSTM      72  70  93 W8G25     29.83F FOG
6HR MIN TEMP:  72; 6HR MAX TEMP:  89; 6HR PCP:  0.17;

FLINT          CLOUDY    81  67  62 SW9       29.76F
6HR MIN TEMP:  81; 6HR MAX TEMP:  91;

GROSSE ILE     HVY RAIN  70  67  90 NW8       29.79F
6HR MIN TEMP:  69; 6HR MAX TEMP:  87; 6HR PCP:  0.38;

HILLSDALE      MOSUNNY   79  70  73 S5        29.81S
HOWELL         CLOUDY    82  65  58 S6        29.79R
6HR MIN TEMP:  82; 6HR MAX TEMP:  88;


CITY           SKY/WX    TMP DP  RH WIND       PRES   REMARKS
JACKSON        LGT RAIN  74  71  91 NW3       29.80S
6HR MIN TEMP:  74; 6HR MAX TEMP:  87; 6HR PCP:  0.39;

LANSING        LGT RAIN  81  68  64 SW8       29.77S
6HR MIN TEMP:  81; 6HR MAX TEMP:  90; 6HR PCP: TRACE;

MASON          PTSUNNY   81  69  66 S3        29.79R
MONROE         CLOUDY    71  69  93 CALM      29.79R
6HR MIN TEMP:  69; 6HR MAX TEMP:  88; 6HR PCP:  0.70;

MT. CLEMENS    TSTM      77  72  83 VRB7      29.77F
6HR MIN TEMP:  78; 6HR MAX TEMP:  90; 6HR PCP:  0.10;

PONTIAC        PTSUNNY   83  68  60 SW8       29.78S
6HR MIN TEMP:  83; 6HR MAX TEMP:  87;

PORT HOPE        N/A     80  65  59 VRB5      29.71F
6HR MIN TEMP:  71; 6HR MAX TEMP:  84;

PORT HURON     CLOUDY    82  64  54 SW5       29.77S
TRI CITIES     MOSUNNY   80  71  74 S7        29.73F
6HR MIN TEMP:  80; 6HR MAX TEMP:  86;

YPSILANTI      TSTM      72  70  93 E5        29.81R FOG
6HR MIN TEMP:  73; 6HR MAX TEMP:  89;

$$
MIZ043>046-050>051-056>058-064>065-071>073-077>080-230100-
SOUTHWEST LOWER MICHIGAN

CITY           SKY/WX    TMP DP  RH WIND       PRES   REMARKS
BATTLE CREEK   CLOUDY    82  70  66 SW9       29.78S
6HR MIN TEMP:  82; 6HR MAX TEMP:  88;

BENTON HARBOR  MOSUNNY   81  70  69 S9        29.74F
6HR MIN TEMP:  80; 6HR MAX TEMP:  89; 6HR PCP:  0.03;

BIG RAPIDS     CLOUDY    77  67  72 SW6       29.76R
6HR MIN TEMP:  77; 6HR MAX TEMP:  79;

COLDWATER      HVY RAIN  78  73  82 SW7       29.80S
6HR MIN TEMP:  77; 6HR MAX TEMP:  85;

HOLLAND        CLOUDY    80  71  74 SW12      29.75S
6HR MIN TEMP:  80; 6HR MAX TEMP:  86; 6HR PCP: TRACE;

GRAND RAPIDS   CLOUDY    73  72  96 S8        29.76F THUNDER
KALAMAZOO      PTSUNNY   82  67  60 SW16G30   29.77S
6HR MIN TEMP:  82; 6HR MAX TEMP:  88; 6HR PCP: TRACE;

MARSHALL       CLOUDY    76  73  88 S8G18     29.78S
6HR MIN TEMP:  75; 6HR MAX TEMP:  87; 6HR PCP:  0.02;

MOUNT PLEASANT CLOUDY    79  65  62 W5        29.75R
6HR MIN TEMP:  79; 6HR MAX TEMP:  85;

MUSKEGON       CLOUDY    77  67  71 SW17G25   29.74R
6HR MIN TEMP:  77; 6HR MAX TEMP:  82;

STURGIS        CLOUDY    80  69  68 SW13G21   29.79R
6HR MIN TEMP:  78; 6HR MAX TEMP:  84;

$$
MIZ016>042-230100-
NORTHERN LOWER MICHIGAN

CITY           SKY/WX    TMP DP  RH WIND       PRES   REMARKS
ALPENA         LGT RAIN  75  67  76 SW9G25    29.70S
6HR MIN TEMP:  72; 6HR MAX TEMP:  79; 6HR PCP:  0.01;

BEAVER ISLAND  CLOUDY    63  63 100 SW7       29.69F
BELLAIRE       LGT RAIN  69  66  89 SW5       29.72S
6HR MIN TEMP:  69; 6HR MAX TEMP:  78;

CADILLAC       LGT RAIN  73  64  74 W5        29.77R
CHARLEVOIX     CLOUDY    65  65 100 W6        29.74R
GAYLORD        CLOUDY    69  64  84 SW9       29.74S
6HR MIN TEMP:  69; 6HR MAX TEMP:  77; 6HR PCP:  0.04;

HOUGHTON LAKE  CLOUDY    75  65  70 W7        29.76R
6HR MIN TEMP:  75; 6HR MAX TEMP:  80; 6HR PCP: TRACE;

MANISTEE       LGT RAIN  68  65  90 W6        29.74S
OSCODA         LGT RAIN  74  69  83 SW7       29.72R
6HR MIN TEMP:  72; 6HR MAX TEMP:  80;

PELLSTON       CLOUDY    67  63  87 W8        29.70R
6HR MIN TEMP:  67; 6HR MAX TEMP:  70; 6HR PCP:  0.52;

TRAVERSE CITY  CLOUDY    73  66  78 SW7       29.70S
6HR MIN TEMP:  73; 6HR MAX TEMP:  81; 6HR PCP: TRACE;

LUDINGTON      CLOUDY    70  65  85 SW3       29.74F
6HR MIN TEMP:  70; 6HR MAX TEMP:  75;

$$
MIZ007>008-015-230100-
EASTERN UPPER MICHIGAN

CITY           SKY/WX    TMP DP  RH WIND       PRES   REMARKS
KINROSS        CLOUDY    64  64 100 W7        29.69R
6HR MIN TEMP:  64; 6HR MAX TEMP:  67;

MACKINAC ISLAN FOG       63  63 100 W12       29.69R VSB 1/4
6HR MIN TEMP:  61; 6HR MAX TEMP:  66; 6HR PCP:  0.41;

NEWBERRY       CLOUDY    64  64  97 SW13      29.68S
6HR MIN TEMP:  64; 6HR MAX TEMP:  69; 6HR PCP:  0.06;

S. S. MARIE    CLOUDY    66  64  93 S7        29.65F
6HR MIN TEMP:  64; 6HR MAX TEMP:  69; 6HR PCP:  0.01;

$$
MIZ004>006-011>014-085-230100-
CENTRAL UPPER MICHIGAN

CITY           SKY/WX    TMP DP  RH WIND       PRES   REMARKS
MANISTIQUE     RAIN      62  59  90 S6        29.68F
6HR MIN TEMP:  60; 6HR MAX TEMP:  66; 6HR PCP:  0.18;

ESCANABA       LGT RAIN  68  66  93 S5        29.67F
6HR MIN TEMP:  67; 6HR MAX TEMP:  73; 6HR PCP:  0.20;

MENOMINEE      CLOUDY    68  66  93 SW3       29.70F
6HR MIN TEMP:  67; 6HR MAX TEMP:  70; 6HR PCP:  0.19;

SAWYER-GWINN   PTSUNNY   66  61  82 SW8       29.70R
$$
MIZ001>003-009>011-084-230100-
WESTERN UPPER MICHIGAN

CITY           SKY/WX    TMP DP  RH WIND       PRES   REMARKS
IRON MOUNTAIN  CLOUDY    67  61  81 W5        29.70S
6HR MIN TEMP:  67; 6HR MAX TEMP:  73; 6HR PCP:  0.05;

HOUGHTON       MOSUNNY   70  45  40 W10       29.65S
6HR MIN TEMP:  66; 6HR MAX TEMP:  71;

COPPER HARBOR    N/A     73  50  44 VRB5      29.62R
6HR MIN TEMP:  58; 6HR MAX TEMP:  73;

IRONWOOD       SUNNY     72  53  51 SW9       29.70
6HR MIN TEMP:  68; 6HR MAX TEMP:  72;

$$

ABBREVIATIONS USED IN REMARKS
   TC - TEMPERATURE IN CELSIUS
  WCI - WIND CHILL INDEX
   HX - HEAT INDEX
  VSB - VISIBILITY





USA.gov is the U.S. government's official web portal to all federal, state and local government web resources and services.